Limon, CO

11:00 AM MDT on July 24, 2017 (GMT -0600)
Limon Municipal

Weather History for KLIC - March, 2014

Change the Weather History Date:

Tuesday, March 18, 2014

  Actual Average Record
Temperature  
Mean Temperature 28 °F -  
Max Temperature 35 °F - 77 °F (2007)
Min Temperature 20 °F - 10 °F (2016)
Degree Days  
Heating Degree Days 37    
Month to date heating degree days 536  
Cooling Degree Days 0    
Month to date cooling degree days 0  
Moisture  
Dew Point 23 °F    
Average Humidity 65    
Maximum Humidity 92    
Minimum Humidity 38    
Precipitation  
Precipitation 0.03 in - 1.02 in (2003)
Month to date precipitation 0.21  
Year to date precipitation 1.38  
Sea Level Pressure  
Sea Level Pressure 29.76 in    
Wind  
Wind Speed 27 mph (NNW)    
Max Wind Speed 52 mph    
Max Gust Speed 63 mph    
Visibility 4 miles    
Events Fog , Snow    
T = Trace of Precipitation, MM = Missing Value Source: NWS Daily Summary

Daily Weather History Graph

Daily Weather History Graph

Search for Another Location

Airport or City:

Trip Planner

Search our weather history database for the weather conditions in past years. The results will help you decide how hot, cold, wet, or windy it might be!

Date:

Astronomy

Mar. 18, 2014 Rise Set
Actual Time 7:01 AM MDT 7:04 PM MDT
Civil Twilight 6:34 AM MDT 7:31 PM MDT
Nautical Twilight 6:03 AM MDT 8:02 PM MDT
Astronomical Twilight 5:31 AM MDT 8:34 PM MDT
Moon 9:23 PM MDT (3/18) 7:52 AM MDT (3/18)
Length of Visible Light 12h 56m
Length of Day
12h 03m
Waning Gibbous, 96% of the Moon is Illuminated
Mar 18
Waning Gibbous
Mar 23
Last Quarter
Mar 30
New
Apr 7
First Quarter
Apr 15
Full

Hourly Weather History & Observations

Time (MDT) Temp. Windchill Dew Point Humidity Pressure Visibility Wind Dir Wind Speed Gust Speed Precip Events Conditions
12:55 AM 34.0 °F 22.4 °F 16.0 °F 48% 29.36 in 10.0 mi North 20.7 mph - N/A   Clear
1:55 AM 32.0 °F 20.8 °F 15.1 °F 50% 29.35 in 10.0 mi NNW 17.3 mph - N/A   Clear
2:55 AM 34.0 °F 24.2 °F 10.9 °F 38% 29.34 in 10.0 mi North 15.0 mph - N/A   Overcast
3:55 AM 30.0 °F 21.7 °F 9.0 °F 41% 29.35 in 10.0 mi North 9.2 mph - N/A   Scattered Clouds
4:55 AM 23.0 °F 13.9 °F 9.0 °F 55% 29.41 in 10.0 mi NNW 8.1 mph - N/A   Clear
5:55 AM 21.0 °F 11.4 °F 8.1 °F 57% 29.43 in 10.0 mi NW 8.1 mph - N/A   Clear
6:55 AM 25.0 °F 13.6 °F 9.0 °F 51% 29.46 in 10.0 mi NW 12.7 mph - N/A   Clear
7:55 AM 33.1 °F 19.1 °F 17.1 °F 52% 29.52 in 10.0 mi NNW 29.9 mph 40.3 mph N/A   Clear
8:25 AM 30.9 °F 14.9 °F 23.0 °F 72% 29.56 in 8.0 mi NW 36.8 mph 51.8 mph 0.00 in Snow Light Snow
8:55 AM 30.0 °F 13.0 °F 24.1 °F 79% 29.55 in 3.0 mi NW 40.3 mph 57.5 mph 0.00 in Snow Light Snow
8:59 AM 30.0 °F 12.3 °F 25.0 °F 82% 29.58 in 1.8 mi NW 44.9 mph 57.5 mph 0.00 in Snow Light Snow
9:16 AM 28.9 °F 11.9 °F 25.0 °F 85% 29.61 in 3.0 mi NNW 38.0 mph 56.4 mph 0.00 in Snow Light Snow
9:41 AM 28.9 °F 11.5 °F 25.0 °F 85% 29.65 in 1.8 mi NNW 40.3 mph 51.8 mph 0.00 in Snow Light Snow
9:53 AM 28.4 °F 11.8 °F 24.8 °F 86% 29.66 in 0.5 mi NNW 34.5 mph 46.0 mph 0.00 in Fog , Snow Snow
9:55 AM 28.0 °F 10.5 °F 25.0 °F 88% 29.65 in 0.5 mi NNW 39.1 mph 49.5 mph 0.00 in Fog , Snow Snow
10:20 AM 28.9 °F 12.1 °F 27.0 °F 92% 29.67 in 0.5 mi NNW 36.8 mph 49.5 mph 0.00 in Fog , Snow Snow
10:55 AM 28.9 °F 11.0 °F 26.1 °F 89% 29.70 in 0.5 mi NNW 43.7 mph 55.2 mph 0.00 in Fog , Snow Snow
11:55 AM 28.9 °F 10.8 °F 26.1 °F 89% 29.74 in 0.5 mi NNW 44.9 mph 63.3 mph 0.00 in Fog , Snow Snow
12:11 PM 28.0 °F 9.7 °F 26.1 °F 92% 29.74 in 0.2 mi NNW 43.7 mph 56.4 mph 0.00 in Fog , Snow Heavy Snow
12:22 PM 28.9 °F 11.1 °F 26.1 °F 89% 29.74 in 0.5 mi NNW 42.6 mph 55.2 mph 0.00 in Fog Light Freezing Fog
12:39 PM 28.9 °F 10.4 °F 26.1 °F 89% 29.76 in 0.8 mi NNW 47.2 mph 62.1 mph 0.00 in Snow Light Snow
12:46 PM 28.9 °F 10.8 °F 26.1 °F 89% 29.77 in 1.2 mi NNW 44.9 mph 62.1 mph 0.00 in Snow Light Snow
12:55 PM 28.9 °F 11.0 °F 26.1 °F 89% 29.81 in 1.0 mi NNW 43.7 mph 59.8 mph 0.00 in Snow Light Snow
1:02 PM 28.9 °F 11.1 °F 26.1 °F 89% 29.79 in 0.5 mi NNW 42.6 mph 57.5 mph 0.00 in Fog , Snow Snow
1:23 PM 28.9 °F 10.8 °F 26.1 °F 89% 29.81 in 0.5 mi North 44.9 mph 59.8 mph 0.00 in Fog , Snow Snow
1:53 PM 28.4 °F 11.2 °F 26.6 °F 93% 29.83 in 0.8 mi NNW 38.0 mph 50.6 mph 0.00 in Snow Light Snow
1:55 PM 28.9 °F 11.5 °F 26.1 °F 89% 29.87 in 0.8 mi NNW 40.3 mph 50.6 mph 0.00 in Snow Light Snow
2:24 PM 28.9 °F 13.0 °F 27.0 °F 92% 29.85 in 0.5 mi NNW 32.2 mph 43.7 mph 0.02 in Fog , Snow Snow
2:45 PM 28.9 °F 12.3 °F 27.0 °F 92% 29.86 in 0.8 mi NNW 35.7 mph 43.7 mph 0.02 in Snow Light Snow
2:55 PM 28.9 °F 12.3 °F 27.0 °F 92% 29.89 in 0.8 mi NNW 35.7 mph 42.6 mph 0.02 in Snow Light Snow
3:11 PM 30.0 °F 13.2 °F 26.1 °F 85% 29.87 in 1.0 mi NNW 39.1 mph 48.3 mph 0.00 in Snow Light Snow
3:55 PM 30.9 °F 16.4 °F 27.0 °F 85% 29.94 in 2.0 mi NNW 28.8 mph 40.3 mph 0.00 in Snow Light Snow
4:05 PM 28.9 °F 12.3 °F 26.1 °F 89% 29.91 in 0.8 mi NNW 35.7 mph 43.7 mph 0.00 in Snow Light Snow
4:19 PM 28.9 °F 13.5 °F 26.1 °F 89% 29.92 in 4.0 mi North 29.9 mph 42.6 mph 0.01 in Snow Light Snow
4:35 PM 30.0 °F 14.9 °F 27.0 °F 88% 29.93 in 1.8 mi North 29.9 mph 40.3 mph 0.01 in Snow Light Snow
4:46 PM 30.0 °F 14.2 °F 26.1 °F 85% 29.93 in 3.0 mi North 33.4 mph 39.1 mph 0.01 in Snow Light Snow
4:55 PM 30.0 °F 15.2 °F 27.0 °F 88% 30.00 in 8.0 mi NNW 28.8 mph 40.3 mph 0.01 in Snow Light Snow
5:55 PM 30.9 °F 20.2 °F 26.1 °F 82% 30.04 in 10.0 mi North 15.0 mph 23.0 mph 0.00 in   Clear
6:55 PM 28.9 °F 17.7 °F 23.0 °F 78% 30.07 in 10.0 mi North 15.0 mph - N/A   Clear
7:55 PM 27.0 °F 14.7 °F 19.9 °F 75% 30.07 in 10.0 mi North 16.1 mph - N/A   Clear
8:55 PM 26.1 °F 15.0 °F 19.9 °F 78% 30.11 in 10.0 mi NNW 12.7 mph - N/A   Clear
9:55 PM 26.1 °F 13.6 °F 19.9 °F 78% 30.12 in 10.0 mi North 16.1 mph - N/A   Clear
10:55 PM 25.0 °F 14.2 °F 19.0 °F 78% 30.13 in 10.0 mi NNW 11.5 mph - N/A   Partly Cloudy
11:55 PM 23.0 °F 13.1 °F 18.0 °F 81% 30.15 in 10.0 mi NNW 9.2 mph - N/A   Clear